Temperature
7 7 7 8 8 8 9 9 10 10 10 11 11 11 11 11 12 12 12 12 12 12 12 12 12 12 12 13 13 12 12 12 12 12 12 12 12 13 13 13 13 13 13
7 7 7 7 8 8 8 9 9 9 10 10 10 10 11 11 11 11 11 12 12 12 12 12 12 12 12 12 12 12 12 12 12 12 11 11 11 12 12 12 12 12 12
7 7 7 7 7 8 8 8 8 9 9 9 10 10 10 10 10 11 11 11 11 11 12 12 12 12 12 12 12 12 12 11 12 11 11 11 12 12 12 12 12 12 12
6 6 6 6 7 7 7 8 8 8 9 9 9 9 9 10 10 10 11 11 11 11 11 11 11 11 11 11 11 11 11 11 11 11 11 11 12 11 11 11 12 12 12
6 6 6 6 6 7 7 7 8 8 8 8 9 9 9 9 10 10 10 11 11 11 11 11 11 11 11 11 11 11 11 11 11 11 11 11 11 11 12 11 11 11 11
6 6 5 6 6 6 6 7 7 7 8 8 8 9 9 9 9 9 10 10 10 10 10 10 11 10 10 11 11 11 11 11 11 11 11 11 11 11 11 11 11 11 11
5 5 5 5 5 6 6 6 7 7 7 7 8 8 8 8 9 9 9 10 10 10 10 10 10 10 10 10 10 10 10 10 10 10 10 10 10 11 11 11 11 10 11
5 5 5 5 5 5 5 6 6 6 7 7 7 8 8 8 8 8 9 9 9 9 9 9 9 10 10 10 10 10 10 10 10 10 10 10 10 10 10 10 10 10 10
5 4 4 4 4 5 5 5 6 6 6 6 7 7 8 8 8 8 8 8 8 8 9 9 9 9 9 9 9 9 9 9 9 10 10 10 10 10 10 10 10 10 10
4 4 4 4 4 4 4 5 5 6 6 6 6 6 7 7 7 8 8 8 8 8 8 8 9 9 9 9 9 9 9 9 9 9 9 9 9 9 9 9 10 10 10
4 4 4 4 4 4 4 4 5 5 5 6 6 6 7 7 7 7 7 8 8 8 8 8 8 8 8 8 8 8 8 8 8 8 8 8 9 9 9 9 9 9 9
3 3 3 4 4 4 4 4 4 5 5 5 6 6 6 6 7 7 7 7 7 7 7 7 7 7 7 7 7 8 8 8 8 8 8 8 8 8 8 8 8 8 8
3 3 3 3 3 3 3 4 4 4 5 5 5 6 6 6 6 6 6 6 7 7 7 7 7 7 7 7 7 7 7 7 7 7 8 8 8 8 8 8 8 8 8
3 3 3 3 3 3 3 3 3 4 4 4 5 5 5 5 5 6 6 6 6 6 6 6 6 6 6 6 6 6 6 6 7 7 7 7 7 8 8 7 7 7 7
3 2 2 2 2 3 3 3 3 3 3 4 4 4 4 4 5 5 5 5 5 5 5 5 5 5 6 6 6 6 6 6 6 6 6 7 7 7 7 7 7 7 7
3 2 2 2 2 2 2 3 3 3 3 3 3 3 3 4 4 4 4 4 5 5 5 5 5 5 5 5 5 5 5 5 6 6 6 6 6 6 6 7 7 6 7
2 2 2 2 2 2 2 2 2 2 3 3 3 3 3 3 3 3 3 4 4 4 4 4 4 4 4 4 5 5 5 5 5 5 5 5 6 6 6 6 6 6 6
2 2 2 2 2 2 2 2 2 2 2 2 2 2 3 3 3 3 3 3 3 3 3 4 4 4 4 4 4 4 4 4 4 5 5 5 5 5 5 5 5 5 6
3 2 2 2 2 2 2 2 2 2 2 2 2 2 2 2 2 2 2 3 3 3 3 3 3 3 3 3 3 3 3 4 4 4 4 4 4 4 5 5 5 5 5
3 2 2 2 2 2 2 2 2 2 2 2 2 2 2 2 2 2 2 2 2 2 2 2 2 2 3 3 3 3 3 3 3 3 4 4 4 4 4 4 4 4 4
3 3 2 2 2 2 2 2 2 1 1 1 1 1 2 2 1 1 1 1 2 2 2 2 2 2 2 2 2 2 2 2 2 3 3 3 3 3 4 4 4 4 4
3 2 2 2 2 2 1 1 1 1 1 1 1 1 1 1 1 1 1 1 1 1 1 1 1 1 1 2 2 2 2 2 2 2 2 3 3 3 3 3 3 3 3
2 2 2 2 1 1 1 1 1 1 1 1 1 0 0 0 0 0 0 0 1 1 0 0 0 0 1 1 1 1 1 1 1 1 2 2 2 2 2 2 2 2 2
2 2 2 1 1 1 1 1 1 1 0 0 0 -0 -0 -0 -0 -0 -0 -0 -0 -0 -0 -0 -0 -0 -0 -0 0 0 0 1 1 1 1 1 2 1 1 1 1 1 1
2 2 1 1 1 1 1 1 0 0 -0 -0 -0 -1 -1 -1 -1 -1 -1 -1 -1 -1 -1 -1 -1 -1 -1 -1 -1 -1 -0 -0 0 0 0 1 1 1 1 1 1 1 1
2 2 1 1 1 1 1 0 -0 -0 -1 -1 -1 -1 -1 -1 -1 -2 -1 -1 -1 -1 -1 -2 -2 -2 -2 -1 -1 -1 -1 -1 -1 -0 -0 -0 -0 -0 -0 -0 -0 -0 -0
Wind_Speed
7 7 7 7 6 5 4 4 5 5 4 4 5 6 7 6 6 7 7 10 12 13 11 9 10 10 10 11 12 11 11 10 8 7 6 6 7 8 8 8 8 9 10
9 8 8 7 6 5 5 5 5 5 5 5 6 6 6 6 6 5 6 9 11 11 11 11 10 11 10 12 12 10 9 8 9 8 6 5 6 8 8 8 8 9 9
9 9 9 7 6 5 5 5 6 6 5 6 5 5 5 5 5 6 6 8 10 11 10 11 11 11 11 11 12 12 13 10 10 9 7 6 7 6 7 10 9 9 9
9 9 8 7 6 6 5 5 5 5 5 5 6 7 7 7 7 6 6 7 9 10 11 11 12 11 10 11 12 12 11 12 11 10 9 7 4 5 5 7 9 10 10
9 8 8 7 6 6 5 5 5 4 4 4 6 7 7 6 5 6 7 8 8 9 10 11 11 12 11 12 12 12 12 11 11 10 9 9 6 7 5 6 7 8 9
9 8 8 7 7 7 6 5 5 5 4 3 4 6 7 7 7 7 7 7 7 7 10 11 11 12 11 12 12 13 14 12 13 11 11 10 8 9 7 7 8 8 8
9 9 10 9 8 8 7 6 5 5 5 3 3 4 6 7 8 8 8 8 7 7 9 10 10 11 11 12 12 12 12 13 13 13 11 11 11 8 8 7 6 7 5
9 10 10 9 8 8 8 7 6 6 6 4 3 2 3 4 5 6 6 7 7 8 9 10 11 12 12 12 12 11 12 11 13 14 13 11 11 9 9 7 6 6 6
9 10 10 9 9 9 9 8 7 7 6 5 4 3 2 3 4 4 5 5 6 6 8 9 10 11 11 12 11 10 13 13 13 13 14 12 11 9 9 8 8 8 9
9 10 10 9 9 9 8 8 8 7 6 6 4 3 3 3 4 3 4 5 6 6 7 8 9 10 10 11 11 11 13 13 13 11 14 14 11 10 9 9 9 9 10
8 9 9 9 8 9 9 9 8 8 7 5 5 4 4 4 4 4 4 5 5 6 7 7 9 10 10 11 11 12 12 14 14 13 14 15 13 10 9 9 9 9 9
7 8 8 9 9 9 9 9 9 8 8 6 6 5 5 4 3 3 4 4 6 6 6 7 8 8 9 10 11 12 12 13 14 14 14 14 12 13 11 10 11 10 10
7 7 8 9 9 9 9 9 10 9 8 7 6 6 6 5 4 3 3 3 4 5 5 6 7 7 7 8 9 10 11 12 13 13 14 14 13 15 12 12 12 10 9
6 7 8 8 9 9 9 8 9 9 9 8 8 8 7 7 5 4 4 3 3 4 5 5 6 6 7 7 8 8 9 10 11 11 12 13 14 15 14 13 13 11 11
6 6 7 7 8 8 8 8 8 9 8 8 8 8 8 7 6 5 5 4 4 3 3 4 4 5 5 6 7 8 8 9 10 10 10 11 12 14 13 11 11 11 11
5 6 6 7 7 8 8 8 8 8 8 8 8 8 8 7 7 7 6 6 5 4 3 3 3 4 3 4 6 6 7 7 8 8 8 8 10 11 12 13 13 13 12
4 5 5 5 6 6 7 7 7 7 8 8 8 8 7 7 7 6 6 6 5 5 4 4 4 4 5 6 6 6 6 6 6 7 7 7 7 9 10 10 11 13 14
5 4 4 5 5 6 6 6 6 6 7 7 8 8 7 7 6 6 6 6 5 5 5 5 5 5 6 8 8 7 6 6 6 7 7 7 8 7 8 8 9 10 11
4 4 4 4 5 5 5 5 5 6 7 7 8 8 7 7 7 7 7 6 6 5 5 5 5 5 6 7 8 7 5 5 6 6 7 7 7 8 8 8 9 8 7
3 3 3 3 4 4 4 4 5 5 6 7 7 7 7 7 6 7 6 6 5 5 4 4 5 5 6 8 8 8 4 4 5 5 6 6 7 8 7 8 8 9 7
3 3 2 3 3 4 3 4 4 5 6 6 7 7 7 7 7 6 6 6 5 5 4 5 5 5 5 7 7 8 4 5 5 5 5 5 7 8 7 7 8 8 5
3 3 3 3 3 3 3 3 4 5 6 6 6 7 7 7 6 6 6 6 6 5 5 5 5 5 5 6 7 7 6 6 5 5 5 4 5 6 6 6 5 5 4
4 4 4 4 3 3 3 4 4 5 5 5 6 6 7 6 6 6 6 6 5 5 5 5 5 6 5 6 8 8 7 7 4 5 5 5 4 4 4 3 2 3 3
5 4 4 4 4 4 3 4 4 4 4 5 5 5 6 6 6 6 5 5 6 5 5 5 6 6 6 6 6 6 6 6 5 4 4 3 2 2 2 1 1 1 2
5 5 5 5 5 4 4 3 3 3 4 4 5 5 5 5 6 5 5 6 5 6 6 6 6 6 6 8 10 8 6 5 5 5 3 3 2 2 2 1 1 1 1
6 6 6 6 5 5 4 3 3 3 3 4 4 4 4 5 5 5 5 5 5 8 8 8 8 7 8 11 10 9 9 8 6 3 2 3 3 2 2 2 2 1 1
Wind_Direction
323 326 327 327 323 313 297 280 274 260 243 225 214 207 209 210 215 215 212 210 205 203 205 207 204 200 200 201 200 199 199 199 193 194 206 221 224 225 220 221 221 218 217
334 331 329 329 326 325 313 289 271 261 243 228 221 215 213 211 213 213 213 211 207 204 205 206 205 203 202 203 202 198 200 199 193 194 192 208 220 224 223 222 223 224 218
336 333 335 333 326 329 320 305 288 268 253 236 221 215 211 210 215 214 213 211 208 206 206 210 209 207 205 204 204 202 203 201 199 201 200 203 219 213 214 220 221 222 221
339 337 336 337 337 334 329 318 307 284 265 243 219 214 212 213 217 217 215 212 209 210 210 213 212 211 210 210 207 205 208 205 205 206 217 226 221 208 209 213 220 223 225
342 340 339 340 341 340 339 334 323 319 296 261 227 219 220 222 218 220 217 212 210 214 214 213 213 212 213 214 213 211 212 211 211 208 208 214 222 223 222 223 216 222 227
346 347 350 352 355 357 353 348 348 340 322 293 249 224 218 218 217 222 222 213 213 217 217 218 216 216 216 216 217 216 216 216 217 215 213 213 211 213 219 229 223 224 225
351 353 356 359 1 359 357 355 353 346 337 326 292 243 226 222 223 227 227 216 214 219 218 218 220 219 220 220 219 219 220 221 222 221 221 222 224 219 220 225 229 233 234
356 356 358 358 358 358 358 359 356 351 343 334 315 290 253 236 233 232 235 225 221 224 224 223 224 223 221 221 221 220 222 223 225 227 228 228 228 225 222 222 223 234 237
357 356 356 358 357 357 358 359 356 349 344 337 323 313 290 264 250 244 239 234 230 230 229 230 230 228 227 225 224 225 224 225 226 228 229 230 229 224 224 223 222 227 238
356 355 354 355 356 355 356 1 359 349 341 338 336 321 303 283 271 259 250 249 242 236 233 234 235 233 232 229 226 228 227 227 227 230 231 231 230 227 223 223 227 230 238
354 354 355 354 352 352 357 0 357 354 351 343 337 336 324 301 284 266 252 251 251 247 245 241 237 235 234 231 230 231 230 230 230 230 232 233 231 230 226 223 225 228 230
355 357 358 357 359 357 354 354 352 354 352 350 350 348 338 325 304 301 281 263 255 249 250 246 241 238 238 236 235 235 234 234 233 232 231 233 229 230 228 225 227 229 229
354 356 358 359 358 356 355 357 356 356 354 357 1 1 354 350 335 315 301 287 269 257 255 247 242 242 241 241 241 242 240 239 238 235 234 234 231 229 228 228 228 229 231
352 352 351 352 352 352 353 357 357 358 357 1 6 4 358 355 347 337 326 306 290 275 265 257 250 248 245 242 244 247 247 245 243 241 239 236 234 234 230 228 228 227 227
342 344 343 344 345 347 350 355 357 357 357 2 5 359 356 359 1 360 353 349 339 310 286 278 269 263 257 251 252 250 249 250 250 244 244 242 237 238 234 230 228 225 226
327 333 334 336 338 342 344 349 354 354 357 2 0 356 357 2 4 2 360 358 350 348 347 336 324 315 300 298 287 273 258 252 250 250 249 250 241 240 238 234 231 227 225
305 313 318 324 329 334 338 342 345 349 358 1 360 358 358 2 360 359 358 354 347 348 352 348 346 336 333 330 314 306 283 267 257 252 249 251 250 244 239 236 233 232 233
292 298 308 315 322 329 334 338 345 352 357 358 359 359 358 358 357 359 356 350 346 347 344 343 339 330 334 342 333 320 285 279 273 264 256 252 251 251 240 237 236 236 235
278 286 294 305 318 326 331 339 346 351 355 355 354 353 354 354 354 353 349 347 346 344 341 333 331 325 327 340 335 327 298 287 284 275 264 258 255 258 243 234 235 239 242
277 285 293 304 313 322 330 338 343 347 347 344 343 345 347 349 348 343 340 339 338 332 330 326 325 323 325 336 335 326 300 296 296 290 280 267 266 265 250 236 232 235 240
266 273 278 288 302 316 325 332 335 337 335 336 340 345 346 344 341 338 338 337 335 331 329 326 325 323 322 329 334 330 311 300 295 290 285 281 280 269 253 248 239 237 231
253 258 264 275 291 302 308 313 320 326 332 338 344 346 346 347 342 341 340 338 335 332 331 327 324 322 322 326 329 329 322 315 297 290 285 287 290 280 264 256 248 219 198
243 247 252 264 276 283 289 297 311 325 331 339 342 341 343 345 345 343 342 342 340 336 332 328 323 324 326 327 331 327 320 316 300 290 294 296 295 287 270 258 243 198 188
241 242 245 254 264 272 279 293 312 323 327 331 332 335 338 340 343 343 340 339 337 332 329 325 319 319 322 326 326 319 309 305 301 296 296 291 276 269 277 252 222 227 217
239 237 240 249 258 263 269 287 305 312 316 321 324 327 332 333 335 334 332 331 334 333 326 323 320 318 315 322 327 321 311 308 301 304 306 320 325 318 306 293 277 258 230
234 236 242 248 254 256 261 272 285 290 300 308 314 320 323 326 326 324 323 324 322 332 334 334 328 319 320 326 326 320 321 320 314 301 288 295 297 290 286 278 279 270 244
Height
1469 1467 1465 1463 1461 1460 1459 1460 1460 1461 1462 1464 1466 1468 1470 1473 1477 1479 1482 1485 1488 1492 1496 1499 1502 1505 1508 1511 1514 1517 1519 1522 1524 1527 1529 1530 1531 1532 1534 1535 1536 1537 1537
1467 1464 1462 1460 1459 1457 1457 1457 1457 1458 1459 1460 1462 1464 1466 1469 1472 1474 1477 1480 1483 1487 1490 1494 1496 1499 1502 1506 1509 1512 1514 1516 1519 1521 1524 1526 1528 1527 1528 1530 1531 1532 1533
1466 1463 1460 1458 1456 1455 1454 1454 1454 1455 1455 1457 1458 1460 1463 1465 1467 1470 1473 1475 1478 1481 1485 1488 1491 1494 1497 1499 1503 1505 1508 1511 1513 1516 1518 1520 1521 1522 1523 1524 1525 1527 1527
1466 1462 1459 1457 1455 1453 1452 1451 1451 1451 1452 1453 1454 1456 1457 1459 1462 1465 1468 1471 1473 1476 1479 1483 1485 1488 1491 1494 1496 1499 1503 1505 1507 1509 1512 1514 1515 1517 1517 1518 1519 1521 1522
1465 1462 1459 1456 1453 1452 1450 1449 1448 1448 1448 1449 1450 1452 1453 1456 1459 1461 1463 1466 1469 1471 1474 1477 1480 1483 1485 1488 1491 1493 1496 1499 1501 1502 1504 1507 1509 1510 1511 1511 1513 1514 1515
1465 1461 1458 1455 1452 1450 1448 1447 1446 1445 1445 1445 1446 1448 1449 1452 1454 1457 1458 1460 1463 1466 1468 1471 1474 1477 1479 1481 1485 1487 1489 1492 1494 1496 1498 1499 1501 1503 1505 1506 1506 1507 1509
1464 1461 1457 1454 1452 1450 1448 1446 1444 1443 1442 1442 1443 1443 1445 1448 1450 1452 1453 1455 1457 1460 1462 1465 1468 1470 1473 1475 1478 1480 1482 1485 1487 1489 1491 1493 1495 1497 1499 1501 1501 1502 1502
1464 1461 1458 1455 1452 1449 1447 1445 1443 1441 1440 1440 1440 1440 1442 1443 1445 1447 1448 1450 1452 1455 1457 1459 1462 1464 1466 1469 1471 1474 1476 1478 1480 1482 1484 1486 1488 1490 1491 1494 1495 1496 1496
1465 1461 1458 1455 1452 1449 1446 1443 1441 1440 1438 1437 1437 1437 1438 1439 1441 1442 1444 1446 1448 1450 1452 1454 1456 1458 1460 1462 1465 1467 1469 1471 1473 1475 1477 1478 1480 1482 1484 1486 1488 1491 1490
1466 1462 1458 1455 1452 1449 1446 1443 1441 1439 1438 1436 1435 1435 1435 1436 1437 1437 1439 1441 1443 1445 1447 1449 1450 1452 1454 1455 1457 1459 1462 1464 1465 1467 1469 1471 1472 1474 1476 1478 1480 1482 1484
1467 1463 1459 1455 1452 1449 1446 1443 1441 1438 1437 1435 1434 1433 1433 1433 1433 1433 1435 1436 1438 1440 1441 1443 1444 1446 1447 1449 1450 1452 1454 1456 1457 1459 1461 1462 1465 1466 1467 1470 1472 1474 1476
1467 1464 1460 1456 1452 1449 1446 1443 1440 1438 1436 1434 1433 1432 1431 1430 1429 1430 1431 1433 1434 1435 1436 1437 1439 1440 1441 1442 1443 1445 1446 1448 1449 1450 1452 1454 1456 1458 1460 1461 1463 1465 1467
1468 1464 1461 1457 1453 1450 1447 1443 1440 1437 1435 1433 1432 1430 1428 1427 1427 1428 1428 1429 1430 1430 1431 1432 1433 1434 1435 1436 1437 1438 1439 1440 1441 1442 1444 1445 1447 1449 1451 1453 1454 1456 1458
1468 1465 1462 1458 1454 1451 1447 1444 1441 1437 1435 1432 1430 1428 1427 1426 1425 1425 1425 1425 1426 1426 1427 1428 1428 1428 1429 1430 1430 1431 1432 1432 1433 1434 1435 1437 1439 1440 1442 1443 1445 1447 1449
1468 1466 1463 1459 1455 1452 1448 1445 1441 1438 1435 1432 1430 1428 1426 1424 1423 1422 1422 1422 1422 1422 1423 1423 1423 1423 1424 1424 1424 1425 1425 1425 1426 1426 1427 1428 1430 1431 1433 1434 1436 1438 1439
1468 1465 1463 1460 1456 1452 1449 1446 1442 1439 1436 1433 1430 1428 1425 1423 1422 1421 1420 1420 1420 1419 1419 1419 1418 1418 1418 1419 1419 1419 1419 1419 1419 1419 1420 1421 1422 1423 1425 1426 1427 1429 1430
1467 1464 1462 1459 1456 1453 1450 1446 1443 1440 1437 1434 1431 1428 1425 1423 1422 1421 1420 1419 1418 1417 1417 1416 1415 1415 1415 1415 1414 1414 1414 1413 1413 1413 1414 1414 1415 1416 1416 1417 1418 1420 1421
1465 1463 1460 1458 1455 1452 1449 1447 1444 1441 1438 1435 1432 1429 1427 1424 1423 1421 1420 1419 1417 1416 1414 1413 1413 1412 1411 1410 1410 1409 1408 1408 1407 1407 1408 1408 1408 1408 1409 1410 1410 1411 1412
1463 1461 1459 1457 1454 1452 1449 1446 1444 1441 1438 1435 1432 1430 1427 1425 1423 1421 1420 1418 1416 1415 1413 1412 1410 1409 1408 1407 1405 1405 1404 1403 1402 1402 1402 1402 1402 1402 1403 1403 1403 1403 1404
1461 1459 1457 1455 1453 1450 1448 1445 1443 1440 1438 1435 1432 1430 1427 1425 1423 1421 1419 1417 1415 1414 1412 1410 1409 1407 1405 1404 1402 1401 1400 1398 1397 1397 1397 1397 1397 1396 1396 1396 1396 1396 1397
1458 1457 1455 1453 1451 1449 1447 1444 1442 1439 1437 1435 1432 1430 1427 1424 1422 1420 1418 1416 1414 1412 1410 1408 1406 1405 1403 1401 1399 1398 1396 1394 1393 1392 1391 1391 1391 1391 1390 1390 1390 1389 1390
1455 1454 1452 1451 1449 1447 1445 1442 1440 1438 1436 1433 1431 1428 1425 1423 1420 1418 1416 1414 1412 1410 1407 1405 1403 1402 1400 1398 1396 1394 1393 1392 1390 1388 1387 1386 1386 1386 1385 1384 1384 1384 1384
1453 1451 1450 1448 1446 1444 1442 1440 1438 1436 1434 1432 1429 1427 1424 1421 1419 1416 1413 1411 1409 1407 1405 1403 1401 1399 1397 1395 1393 1391 1390 1388 1387 1385 1383 1382 1381 1381 1380 1379 1378 1378 1377
1449 1448 1447 1445 1443 1442 1440 1438 1437 1435 1432 1430 1427 1425 1422 1420 1417 1414 1412 1409 1407 1405 1403 1400 1398 1396 1394 1392 1390 1388 1386 1384 1383 1381 1380 1379 1377 1377 1376 1375 1375 1374 1374
1446 1445 1444 1442 1441 1439 1437 1436 1435 1433 1431 1428 1426 1423 1421 1418 1416 1413 1411 1408 1406 1403 1401 1399 1397 1394 1391 1390 1388 1385 1383 1381 1380 1378 1377 1375 1374 1372 1372 1371 1371 1371 1371
1442 1441 1440 1439 1437 1436 1434 1433 1432 1430 1428 1426 1424 1421 1419 1416 1414 1411 1409 1406 1404 1401 1399 1396 1394 1391 1389 1387 1384 1382 1380 1378 1377 1375 1373 1372 1370 1370 1369 1368 1368 1368 1368